Regional Weather Roundup
Issued by NWS

Home | Current Version | Previous Version | Text Only | Print | Product List | Glossary On
Versions: 1 2 3 4 5 6 7 8 9 10 11 12 13 14 15 16 17 18 19 20 21 22 23 24 25 26 27 28 29 30 31 32 33 34 35 36 37 38 39 40 41 42 43 44 45 46 47 48 49 50
000
ASUS43 KMKX 042111
RWRWI

WISCONSIN REGIONAL WEATHER ROUNDUP
NATIONAL WEATHER SERVICE MILWAUKEE/SULLIVAN WI
400 PM CDT SAT JUL 04 2015

NOTE: "FAIR" INDICATES FEW OR NO CLOUDS BELOW 12,000 FEET WITH NO
SIGNIFICANT WEATHER AND/OR OBSTRUCTIONS TO VISIBILITY.

WIZ001-002-006>008-014>016-023>028-042200-
NORTHWEST WISCONSIN

CITY           SKY/WX    TMP DP  RH WIND       PRES   REMARKS
SUPERIOR ARPT  SUNNY     67  60  76 NE8       29.94F
ASHLAND        SUNNY     75  65  70 N8        29.95F
HAYWARD        PTSUNNY   81  56  42 S7        29.95F HX  81
SIREN          MOSUNNY   84  57  39 W7        29.93S HX  83
CUMBERLAND     MOSUNNY   79  57  47 S6        29.95S HX  80
RICE LAKE      SUNNY     82  59  46 S7        29.96S HAZE    HX  82
CHETEK         NOT AVBL
LADYSMITH      MOSUNNY   82  57  41 CALM      29.97F HX  82
EAU CLAIRE     MOSUNNY   82  62  50 SW8       29.94S HAZE    HX  83
MENOMONIE      MOSUNNY   83  62  49 S9        29.94F HAZE    HX  84
NEW RICHMOND   MOSUNNY   82  64  55 SW7       29.94F HAZE    HX  83
OSCEOLA        SUNNY     83  62  49 SW7       29.96S HAZE    HX  84
$$

WIZ003>005-009-010-017-018-042200-
NORTH CENTRAL WISCONSIN

CITY           SKY/WX    TMP DP  RH WIND       PRES   REMARKS
MANITOWISH WTR PTSUNNY   77  56  48 SE3       29.98F
ARBOR VITAE    PTSUNNY   80  57  46 CALM      29.99S HX  80
WOODRUFF       PTSUNNY   80  57  46 CALM      29.99S HX  80
RHINELANDER    PTSUNNY   81  52  36 VRB3      29.99F HX  80
EAGLE RIVER    PTSUNNY   79  48  34 CALM      29.99S
LAND O LAKES   PTSUNNY   78  53  41 CALM      30.00S
PHILLIPS       SUNNY     80  56  43 SW7       29.96F HX  80
TOMAHAWK       MOSUNNY   79  53  39 W3        29.98F
MEDFORD        SUNNY     80  59  48 SW7       29.98S HX  81
MERRILL        MOSUNNY   82  56  40 SW7       29.98S HX  81
$$

WIZ029-030-035-036-043>047-042200-
CENTRAL WISCONSIN

CITY           SKY/WX    TMP DP  RH WIND       PRES   REMARKS
WAUSAU         MOSUNNY   82  58  43 SW6       29.95S HX  82
MOSINEE        MOSUNNY   81  61  50 SW7       29.99S HX  81
MARSHFIELD     SUNNY     80  61  52 SW3       29.97S HAZE    HX  81
STEVENS POINT  MOSUNNY   81  59  47 W5        29.97F HX  81
WAUPACA        MOSUNNY   84  62  47 S5        29.96S HX  84
WAUTOMA        MOSUNNY   85  62  45 VRB7      29.97S HX  85
WISC RAPIDS    SUNNY     82  61  48 VRB5      29.98S HX  83
CAMP DOUGLAS   SUNNY     82  65  56 VRB6      29.96S HX  84
$$

WIZ011>013-019>022-031-037>040-048>050-042200-
NORTHEAST WISCONSIN

CITY           SKY/WX    TMP DP  RH WIND       PRES   REMARKS
ANTIGO         CLOUDY    77  62  59 SE6       29.99S
SHAWANO        PTSUNNY   81  62  51 CALM      29.97S HX  82
OCONTO         MOSUNNY   78  64  61 E6        29.98S
STURGEON BAY   MOSUNNY   72  61  68 E6        30.01F
GREEN BAY      MOSUNNY   80  65  59 NE7       29.97R HX  82
MANITOWOC      MOSUNNY   70  62  76 MISG      29.99S
APPLETON       PTSUNNY   81  59  47 SW5       29.98S HX  81
CLINTONVILLE   MOSUNNY   82  55  39 W3        29.96S HX  82
OSHKOSH        PTSUNNY   80  62  54 SW3       29.97S HX  81
$$

WIZ032>034-041-042-053>061-042200-
SOUTHWEST WISCONSIN

CITY           SKY/WX    TMP DP  RH WIND       PRES   REMARKS
LA CROSSE      SUNNY     83  64  52 S9        29.95S HX  84
SPARTA         PTSUNNY   80  60  49 CALM      29.97S HX  81
VIROQUA        MOSUNNY   80  63  54 SW8       30.00S HX  81
BOSCOBEL       SUNNY     83  60  45 VRB7      29.98S HX  83
PRAIRIE DU CHI MOSUNNY   80  59  48 SW7       29.97F HX  81
PLATTEVILLE    MOSUNNY   80  59  49 W10       30.00S HX  80
$$

WIZ056-057-062-063-064-067-068-042200-
SOUTH CENTRAL WISCONSIN

CITY           SKY/WX    TMP DP  RH WIND       PRES   REMARKS
REEDSBURG      SUNNY     81  61  50 S8        29.98S HX  81
BARABOO/DELLS  SUNNY     80  58  46 SW9       29.98S HX  81
LONE ROCK      SUNNY     82  59  45 SW9       29.98S HX  82
MINERAL POINT  SUNNY     81  55  41 SW7       30.01S HX  80
MADISON        MOSUNNY   81  60  48 VRB5      29.98S HX  82
MIDDLETON      PTSUNNY   83  58  42 SW8       30.00S HX  82
WATERTOWN      PTSUNNY   79  62  55 S5        29.98S HX  81
MONROE         MOSUNNY   79  61  53 SW10      30.00S HX  80
JANESVILLE     PTSUNNY   81  61  50 W6        29.99S HX  81
$$

WIZ051-052-058>065-066-070>072-042200-
SOUTHEAST WISCONSIN

CITY           SKY/WX    TMP DP  RH WIND       PRES   REMARKS
MILWAUKEE      MOSUNNY   79  61  53 SE14      29.98F HX  80
WAUKESHA       PTSUNNY   79  59  50 SW6       30.00S HX  80
MILWAUKEE/TIMM CLOUDY    81  57  44 SW7       29.98F HX  81
RACINE         SUNNY     77  58  51 S10       30.01S
BURLINGTON     SUNNY     78  59  52 SW5       29.99F
KENOSHA        SUNNY     81  60  48 SW5       29.99F HX  82
FOND DU LAC    PTSUNNY   81  62  52 SW6       29.98S HX  82
SHEBOYGAN      MOSUNNY   77  61  57 SE9       29.98R
WEST BEND      CLOUDY    79  59  50 S5        29.98F HX  80
JUNEAU         MOSUNNY   78  62  58 SW6       30.00S
$$

LSZ147-162-042200-
LAKE SUPERIOR

STATION/POSITION TIME  TEMP    WIND        PRES    WAVE
                       AIR SEA DIR/SP/G            HT/PER
                 (UTC) (F)     (DEG/KT/KT) (MB)    (FT/S)
W MID LAKE BUOY  2050   42 39   60/  8/  8 1015.4F   0
DEVILS ISLAND    2100   58      80/  9/ 10 1014.8F
SAXON HARBOR     2000   64        CALM     1014.6S
$$

LMZ867-665-643>646-042200-
LAKE MICHIGAN

STATION/POSITION TIME  TEMP    WIND        PRES    WAVE
                       AIR SEA DIR/SP/G            HT/PER
                 (UTC) (F)     (DEG/KT/KT) (MB)    (FT/S)
CHAMBERS ISLAND  2000   71      60/  5/  6 1015.6S
S GREEN BAY BUOY 2100   70 70   60/ 10/ 14 1016.3F
N MID LAKE BUOY  2050   60 53  200/  4/  4 1015.6F   0
NORTHPORT PIER   2000   64     140/  7/  8 1015.6S
SISTER BAY       2014   79     130/  9/ 11   N/A
ALGOMA LAKESHORE 2011           70/  8/  9   N/A
KEWAUNEE LAKESHO 2000   63      50/  3/  7 1015.0F
SHEBOYGAN LAKESH 2100   64     160/ 11/ 11 1015.5R
PORT WASHINGTON  2040   72     190/  6/  8 1015.9S
ATWATER BUOY     2100   65 62  150/ 10/ 12 1016.5F
MILWAUKEE LAKESH 2000   65     140/ 12/ 13   N/A
KENOSHA   LAKESH 2100   67     180/ 10/ 13 1015.2F
$$

TC  - TEMPERATURE IN CELSIUS
VSB - VISIBILITY IN STATUTE MILES
WCI - WIND CHILL INDEX
HX  - HEAT INDEX




USA.gov is the U.S. government's official web portal to all federal, state and local government web resources and services.